User: anonymous   Login
Location: Newark
(48.1500°N, 2.9667°W)
Time: 17:43:22
(UTC+00:00)
Language:

Explorer 11/Cluster Stage 4 - Orbit

View from above orbital plane
View from above orbital plane
View from above satellite
View from above satellite

Ground track
Ground track

The orbit data is extracted from the following two-line orbital elements,

1   107U 61013A   20021.02432648  .00000280  00000-0  15805-4 0  9996
2   107  28.7889 299.6965 0547080 181.2644 178.6540 14.08894363944822
Epoch (UTC): 21 January 2020 00:35:01
Eccentricity: 0.0547080
inclination: 28.7889°
perigee height: 467 km
apogee height: 1259 km
right ascension of ascending node: 299.6965°
argument of perigee: 181.2644°
revolutions per day: 14.08894363
mean anomaly at epoch: 178.6540°
orbit number at epoch: 94482

The dashed part of the orbit path shows where the satellite is in the earth's shadow,  

DLR